ORBCOMM FM08 [+]

Last updated on Sat May 13 2023 00:03:01 GMT+0000 (Coordinated Universal Time)

1 25112U 97084A 23132.14331626 .00002636 00000+0 85968-3 0 9991 2 25112 45.0153 73.1827 0009313 334.4315 25.6073 14.40794077330583
UTC large
Height (km)
Speed (km/s)
/
Latitude / Longitude
Inclination (degrees)
Orbital Period (minutes)
Azimuth
Elevation
Range (km)
Doppler Factor

Next 0 passes for location: London (51.5072 / 0.1276)

Sorry there are no passes over London.